Time,TemperatureF,DewpointF,PressureIn,WindDirection,WindDirectionDegrees,WindSpeedMPH,WindSpeedGustMPH,Humidity,HourlyPrecipIn,Conditions,Clouds,dailyrainin,SoftwareType,DateUTC
2013-05-27 00:01:00,59.1,26.1,28.30,SE,132,5.7,6.4,28,0.00,NA,NA,0.00,davis-wu-upload.pl,2013-05-27 04:01:00,
2013-05-27 00:02:00,59.1,26.1,28.30,SE,132,5.7,6.4,28,0.00,NA,NA,0.00,davis-wu-upload.pl,2013-05-27 04:02:00,
2013-05-27 00:03:00,59.1,26.1,28.30,SE,132,5.3,6.4,28,0.00,NA,NA,0.00,davis-wu-upload.pl,2013-05-27 04:03:00,
2013-05-27 00:06:00,59.3,25.7,28.30,SE,133,6.0,6.4,27,0.00,NA,NA,0.00,davis-wu-upload.pl,2013-05-27 04:06:00,
2013-05-27 00:07:00,59.3,25.7,28.30,SE,132,6.0,6.4,27,0.00,NA,NA,0.00,davis-wu-upload.pl,2013-05-27 04:07:00,
2013-05-27 00:12:00,59.4,25.7,28.30,SE,132,5.7,7.3,27,0.00,NA,NA,0.00,davis-wu-upload.pl,2013-05-27 04:12:00,
2013-05-27 00:17:00,59.2,25.6,28.30,SE,132,7.5,7.5,28,0.00,NA,NA,0.00,davis-wu-upload.pl,2013-05-27 04:17:00,
2013-05-27 00:22:00,59.1,25.6,28.30,SE,132,7.4,7.5,28,0.00,NA,NA,0.00,davis-wu-upload.pl,2013-05-27 04:22:00,
2013-05-27 00:27:00,58.9,25.9,28.31,SE,132,6.5,7.5,28,0.00,NA,NA,0.00,davis-wu-upload.pl,2013-05-27 04:27:00,
2013-05-27 00:32:00,58.8,25.8,28.31,SE,132,6.6,7.4,28,0.00,NA,NA,0.00,davis-wu-upload.pl,2013-05-27 04:32:00,
2013-05-27 00:37:00,58.6,25.9,28.31,SE,140,5.6,6.8,28,0.00,NA,NA,0.00,davis-wu-upload.pl,2013-05-27 04:37:00,
2013-05-27 00:42:00,58.6,26.0,28.31,SE,135,6.2,6.6,29,0.00,NA,NA,0.00,davis-wu-upload.pl,2013-05-27 04:42:00,
2013-05-27 00:47:00,58.4,26.2,28.31,SE,133,6.0,7.2,29,0.00,NA,NA,0.00,davis-wu-upload.pl,2013-05-27 04:47:00,
2013-05-27 00:52:00,58.5,26.2,28.31,SE,132,7.4,7.4,29,0.00,NA,NA,0.00,davis-wu-upload.pl,2013-05-27 04:52:00,
2013-05-27 00:57:00,58.3,26.5,28.31,SE,137,6.1,7.4,29,0.00,NA,NA,0.00,davis-wu-upload.pl,2013-05-27 04:57:00,
2013-05-27 01:02:00,58.2,26.5,28.31,SE,137,5.6,7.4,30,0.00,NA,NA,0.00,davis-wu-upload.pl,2013-05-27 05:02:00,
2013-05-27 01:07:00,57.9,26.5,28.31,SE,144,4.7,6.4,30,0.00,NA,NA,0.00,davis-wu-upload.pl,2013-05-27 05:07:00,
2013-05-27 01:12:00,57.9,26.5,28.32,SE,133,5.9,5.9,30,0.00,NA,NA,0.00,davis-wu-upload.pl,2013-05-27 05:12:00,
2013-05-27 01:17:00,57.9,26.6,28.32,SE,138,6.2,6.7,30,0.00,NA,NA,0.00,davis-wu-upload.pl,2013-05-27 05:17:00,
2013-05-27 01:22:00,57.8,26.6,28.32,SE,133,5.3,7.1,30,0.00,NA,NA,0.00,davis-wu-upload.pl,2013-05-27 05:22:00,
2013-05-27 01:27:00,57.7,26.8,28.32,SE,132,4.3,7.1,30,0.00,NA,NA,0.00,davis-wu-upload.pl,2013-05-27 05:27:00,
2013-05-27 01:32:00,57.4,26.9,28.32,SE,134,6.1,6.1,31,0.00,NA,NA,0.00,davis-wu-upload.pl,2013-05-27 05:32:00,
2013-05-27 01:37:00,57.3,27.1,28.32,SE,133,5.5,6.3,31,0.00,NA,NA,0.00,davis-wu-upload.pl,2013-05-27 05:37:00,
2013-05-27 01:42:00,57.3,26.9,28.32,SE,133,5.8,6.3,31,0.00,NA,NA,0.00,davis-wu-upload.pl,2013-05-27 05:42:00,
2013-05-27 01:47:00,57.2,27.1,28.32,SE,136,4.8,6.9,31,0.00,NA,NA,0.00,davis-wu-upload.pl,2013-05-27 05:47:00,
2013-05-27 01:52:00,56.8,27.3,28.31,SSE,156,5.2,6.9,32,0.00,NA,NA,0.00,davis-wu-upload.pl,2013-05-27 05:52:00,
2013-05-27 01:57:00,56.7,27.3,28.31,SSE,157,6.4,6.9,32,0.00,NA,NA,0.00,davis-wu-upload.pl,2013-05-27 05:57:00,
2013-05-27 02:02:00,57.0,27.4,28.31,SE,141,6.1,6.8,32,0.00,NA,NA,0.00,davis-wu-upload.pl,2013-05-27 06:02:00,
2013-05-27 02:07:00,56.8,27.3,28.31,SE,132,6.4,6.8,32,0.00,NA,NA,0.00,davis-wu-upload.pl,2013-05-27 06:07:00,
2013-05-27 02:12:00,56.9,27.4,28.31,SE,134,6.2,7.3,32,0.00,NA,NA,0.00,davis-wu-upload.pl,2013-05-27 06:12:00,
2013-05-27 02:17:00,56.7,27.5,28.31,SE,137,5.5,7.3,32,0.00,NA,NA,0.00,davis-wu-upload.pl,2013-05-27 06:17:00,
2013-05-27 02:22:00,56.5,27.5,28.31,SE,132,5.6,7.3,33,0.00,NA,NA,0.00,davis-wu-upload.pl,2013-05-27 06:22:00,
2013-05-27 02:27:00,56.5,27.5,28.31,SE,132,6.1,7.0,33,0.00,NA,NA,0.00,davis-wu-upload.pl,2013-05-27 06:27:00,
2013-05-27 02:32:00,56.3,27.6,28.31,SE,134,4.6,6.2,33,0.00,NA,NA,0.00,davis-wu-upload.pl,2013-05-27 06:32:00,
2013-05-27 02:37:00,56.1,27.7,28.31,SE,132,6.0,6.2,33,0.00,NA,NA,0.00,davis-wu-upload.pl,2013-05-27 06:37:00,
2013-05-27 02:42:00,56.0,27.7,28.31,SE,133,5.0,6.2,34,0.00,NA,NA,0.00,davis-wu-upload.pl,2013-05-27 06:42:00,
2013-05-27 02:47:00,56.0,27.8,28.31,SE,132,5.6,6.2,34,0.00,NA,NA,0.00,davis-wu-upload.pl,2013-05-27 06:47:00,
2013-05-27 02:52:00,56.1,28.1,28.30,SE,132,6.4,6.7,34,0.00,NA,NA,0.00,davis-wu-upload.pl,2013-05-27 06:52:00,
2013-05-27 02:57:00,56.1,28.2,28.30,SE,145,5.2,6.7,34,0.00,NA,NA,0.00,davis-wu-upload.pl,2013-05-27 06:57:00,
2013-05-27 03:02:00,55.9,28.4,28.30,SE,132,5.6,6.7,35,0.00,NA,NA,0.00,davis-wu-upload.pl,2013-05-27 07:02:00,
2013-05-27 03:07:00,55.9,28.3,28.30,SE,132,5.7,6.3,34,0.00,NA,NA,0.00,davis-wu-upload.pl,2013-05-27 07:07:00,
2013-05-27 03:12:00,55.8,28.1,28.30,SE,132,5.8,6.3,34,0.00,NA,NA,0.00,davis-wu-upload.pl,2013-05-27 07:12:00,
2013-05-27 03:17:00,55.9,28.2,28.30,SE,132,7.0,7.0,34,0.00,NA,NA,0.00,davis-wu-upload.pl,2013-05-27 07:17:00,
2013-05-27 03:22:00,55.8,28.2,28.30,SE,132,5.4,7.0,34,0.00,NA,NA,0.00,davis-wu-upload.pl,2013-05-27 07:22:00,
2013-05-27 03:27:00,55.7,28.1,28.30,SE,132,5.6,7.1,34,0.00,NA,NA,0.00,davis-wu-upload.pl,2013-05-27 07:27:00,
2013-05-27 03:32:00,55.8,28.7,28.30,SE,137,6.1,7.1,35,0.00,NA,NA,0.00,davis-wu-upload.pl,2013-05-27 07:32:00,
2013-05-27 03:37:00,55.6,28.5,28.30,SE,132,6.4,6.4,35,0.00,NA,NA,0.00,davis-wu-upload.pl,2013-05-27 07:37:00,
2013-05-27 03:42:00,55.6,28.8,28.31,SE,132,5.6,6.6,36,0.00,NA,NA,0.00,davis-wu-upload.pl,2013-05-27 07:42:00,
2013-05-27 03:47:00,55.6,28.9,28.30,SE,138,6.1,6.6,36,0.00,NA,NA,0.00,davis-wu-upload.pl,2013-05-27 07:47:00,
2013-05-27 03:52:00,55.4,29.2,28.31,SE,138,5.1,6.6,37,0.00,NA,NA,0.00,davis-wu-upload.pl,2013-05-27 07:52:00,
2013-05-27 03:57:00,55.3,29.3,28.31,SE,133,5.6,6.1,37,0.00,NA,NA,0.00,davis-wu-upload.pl,2013-05-27 07:57:00,
2013-05-27 04:02:00,55.4,29.5,28.31,SSE,150,5.4,6.0,37,0.00,NA,NA,0.00,davis-wu-upload.pl,2013-05-27 08:02:00,
2013-05-27 04:07:00,55.2,29.6,28.31,SSE,162,4.4,5.6,37,0.00,NA,NA,0.00,davis-wu-upload.pl,2013-05-27 08:07:00,
2013-05-27 04:12:00,55.4,29.6,28.31,SSE,153,4.7,5.4,37,0.00,NA,NA,0.00,davis-wu-upload.pl,2013-05-27 08:12:00,
2013-05-27 04:17:00,55.3,29.7,28.31,SE,146,3.8,5.3,37,0.00,NA,NA,0.00,davis-wu-upload.pl,2013-05-27 08:17:00,
2013-05-27 04:22:00,55.1,29.8,28.31,SE,142,5.3,5.3,38,0.00,NA,NA,0.00,davis-wu-upload.pl,2013-05-27 08:22:00,
2013-05-27 04:27:00,54.8,29.5,28.31,SSE,152,4.8,5.3,38,0.00,NA,NA,0.00,davis-wu-upload.pl,2013-05-27 08:27:00,
2013-05-27 04:32:00,54.6,29.3,28.31,SSE,157,3.9,5.5,38,0.00,NA,NA,0.00,davis-wu-upload.pl,2013-05-27 08:32:00,
2013-05-27 04:37:00,54.5,29.6,28.31,SSE,167,5.4,5.5,38,0.00,NA,NA,0.00,davis-wu-upload.pl,2013-05-27 08:37:00,
2013-05-27 04:42:00,54.6,29.7,28.31,SSE,168,4.3,5.4,38,0.00,NA,NA,0.00,davis-wu-upload.pl,2013-05-27 08:42:00,
2013-05-27 04:47:00,54.8,29.5,28.31,SSE,168,4.2,5.4,38,0.00,NA,NA,0.00,davis-wu-upload.pl,2013-05-27 08:47:00,
2013-05-27 04:52:00,54.8,29.7,28.31,SSE,156,3.7,4.6,38,0.00,NA,NA,0.00,davis-wu-upload.pl,2013-05-27 08:52:00,
2013-05-27 04:57:00,54.5,29.7,28.31,SSE,153,4.5,4.8,39,0.00,NA,NA,0.00,davis-wu-upload.pl,2013-05-27 08:57:00,
2013-05-27 05:02:00,54.5,29.7,28.31,SSE,154,4.2,4.8,39,0.00,NA,NA,0.00,davis-wu-upload.pl,2013-05-27 09:02:00,
2013-05-27 05:07:00,54.4,29.6,28.31,SE,135,3.4,4.8,38,0.00,NA,NA,0.00,davis-wu-upload.pl,2013-05-27 09:07:00,
2013-05-27 05:12:00,54.6,29.2,28.31,SSE,161,3.9,4.2,38,0.00,NA,NA,0.00,davis-wu-upload.pl,2013-05-27 09:12:00,
2013-05-27 05:17:00,55.1,29.1,28.31,SSE,158,5.5,5.5,37,0.00,NA,NA,0.00,davis-wu-upload.pl,2013-05-27 09:17:00,
2013-05-27 05:22:00,55.4,29.1,28.31,SSE,164,4.4,5.5,36,0.00,NA,NA,0.00,davis-wu-upload.pl,2013-05-27 09:22:00,
2013-05-27 05:27:00,55.1,29.4,28.31,SSE,153,4.4,5.5,37,0.00,NA,NA,0.00,davis-wu-upload.pl,2013-05-27 09:27:00,
2013-05-27 05:32:00,55.1,29.3,28.32,SSE,151,3.4,5.0,37,0.00,NA,NA,0.00,davis-wu-upload.pl,2013-05-27 09:32:00,
2013-05-27 05:37:00,55.1,29.3,28.32,SSE,156,4.0,5.0,37,0.00,NA,NA,0.00,davis-wu-upload.pl,2013-05-27 09:37:00,
2013-05-27 05:42:00,55.0,29.4,28.32,SSE,162,3.9,5.0,37,0.00,NA,NA,0.00,davis-wu-upload.pl,2013-05-27 09:42:00,
2013-05-27 05:47:00,55.0,29.5,28.32,SSE,166,4.8,4.8,38,0.00,NA,NA,0.00,davis-wu-upload.pl,2013-05-27 09:47:00,
2013-05-27 05:52:00,54.9,29.8,28.32,SSE,154,4.2,4.8,38,0.00,NA,NA,0.00,davis-wu-upload.pl,2013-05-27 09:52:00,
2013-05-27 05:57:00,54.9,29.9,28.32,SSE,160,4.2,4.8,38,0.00,NA,NA,0.00,davis-wu-upload.pl,2013-05-27 09:57:00,
2013-05-27 06:02:00,55.0,30.2,28.32,SSE,150,4.7,4.7,39,0.00,NA,NA,0.00,davis-wu-upload.pl,2013-05-27 10:02:00,
2013-05-27 06:07:00,55.0,30.5,28.32,SSE,163,5.6,5.6,39,0.00,NA,NA,0.00,davis-wu-upload.pl,2013-05-27 10:07:00,
2013-05-27 06:12:00,55.0,30.5,28.32,SSE,160,4.4,5.6,39,0.00,NA,NA,0.00,davis-wu-upload.pl,2013-05-27 10:12:00,
2013-05-27 06:17:00,55.0,30.7,28.32,SSE,150,5.1,5.8,39,0.00,NA,NA,0.00,davis-wu-upload.pl,2013-05-27 10:17:00,
2013-05-27 06:22:00,54.9,30.6,28.32,SSE,152,5.1,5.8,39,0.00,NA,NA,0.00,davis-wu-upload.pl,2013-05-27 10:22:00,
2013-05-27 06:27:00,54.9,30.7,28.32,SSE,155,4.8,5.1,40,0.00,NA,NA,0.00,davis-wu-upload.pl,2013-05-27 10:27:00,
2013-05-27 06:32:00,54.7,30.6,28.32,SSE,153,4.0,5.1,40,0.00,NA,NA,0.00,davis-wu-upload.pl,2013-05-27 10:32:00,
2013-05-27 06:37:00,54.8,30.6,28.33,SSE,154,3.5,4.8,40,0.00,NA,NA,0.00,davis-wu-upload.pl,2013-05-27 10:37:00,
2013-05-27 06:42:00,55.1,30.6,28.33,SSE,153,4.0,4.2,39,0.00,NA,NA,0.00,davis-wu-upload.pl,2013-05-27 10:42:00,
2013-05-27 06:47:00,55.4,30.5,28.33,SSE,153,3.9,5.3,38,0.00,NA,NA,0.00,davis-wu-upload.pl,2013-05-27 10:47:00,
2013-05-27 06:52:00,55.4,30.7,28.33,SSE,157,4.2,5.3,39,0.00,NA,NA,0.00,davis-wu-upload.pl,2013-05-27 10:52:00,
2013-05-27 06:57:00,55.4,30.6,28.33,SSE,149,4.4,4.4,39,0.00,NA,NA,0.00,davis-wu-upload.pl,2013-05-27 10:57:00,
2013-05-27 07:02:00,55.6,31.1,28.34,SE,139,3.7,4.5,39,0.00,NA,NA,0.00,davis-wu-upload.pl,2013-05-27 11:02:00,
2013-05-27 07:07:00,55.6,31.0,28.34,SSE,159,4.5,4.7,39,0.00,NA,NA,0.00,davis-wu-upload.pl,2013-05-27 11:07:00,
2013-05-27 07:12:00,55.8,31.1,28.34,SE,141,4.6,4.9,39,0.00,NA,NA,0.00,davis-wu-upload.pl,2013-05-27 11:12:00,
2013-05-27 07:17:00,56.4,31.2,28.34,SSE,150,3.2,4.9,38,0.00,NA,NA,0.00,davis-wu-upload.pl,2013-05-27 11:17:00,
2013-05-27 07:22:00,56.6,31.6,28.34,SE,132,4.6,4.9,39,0.00,NA,NA,0.00,davis-wu-upload.pl,2013-05-27 11:22:00,
2013-05-27 07:27:00,56.2,32.4,28.34,SE,134,3.2,4.6,40,0.00,NA,NA,0.00,davis-wu-upload.pl,2013-05-27 11:27:00,
2013-05-27 07:32:00,56.9,32.3,28.34,SE,132,3.0,4.6,39,0.00,NA,NA,0.00,davis-wu-upload.pl,2013-05-27 11:32:00,
2013-05-27 07:37:00,57.5,32.6,28.34,SE,133,2.4,4.0,39,0.00,NA,NA,0.00,davis-wu-upload.pl,2013-05-27 11:37:00,
2013-05-27 07:42:00,58.1,32.5,28.34,SE,141,2.7,4.0,38,0.00,NA,NA,0.00,davis-wu-upload.pl,2013-05-27 11:42:00,
2013-05-27 07:47:00,58.0,33.1,28.34,SE,132,4.2,4.2,39,0.00,NA,NA,0.00,davis-wu-upload.pl,2013-05-27 11:47:00,
2013-05-27 07:52:00,57.9,33.5,28.35,SE,132,2.4,4.2,40,0.00,NA,NA,0.00,davis-wu-upload.pl,2013-05-27 11:52:00,
2013-05-27 07:57:00,58.6,33.3,28.35,SE,132,3.5,4.2,38,0.00,NA,NA,0.00,davis-wu-upload.pl,2013-05-27 11:57:00,
2013-05-27 08:02:00,58.8,34.8,28.34,SE,132,2.9,5.0,40,0.00,NA,NA,0.00,davis-wu-upload.pl,2013-05-27 12:02:00,
2013-05-27 08:07:00,59.4,35.6,28.34,SE,132,2.4,5.0,41,0.00,NA,NA,0.00,davis-wu-upload.pl,2013-05-27 12:07:00,
2013-05-27 08:12:00,58.9,32.9,28.34,SE,132,4.2,5.0,37,0.00,NA,NA,0.00,davis-wu-upload.pl,2013-05-27 12:12:00,
2013-05-27 08:17:00,59.1,33.8,28.35,SE,132,4.5,4.5,38,0.00,NA,NA,0.00,davis-wu-upload.pl,2013-05-27 12:17:00,
2013-05-27 08:22:00,59.9,36.0,28.35,SE,132,1.4,4.5,41,0.00,NA,NA,0.00,davis-wu-upload.pl,2013-05-27 12:22:00,
2013-05-27 08:27:00,59.2,32.8,28.35,SE,132,4.5,4.5,37,0.00,NA,NA,0.00,davis-wu-upload.pl,2013-05-27 12:27:00,
2013-05-27 08:32:00,59.3,32.7,28.35,SE,132,4.3,4.5,37,0.00,NA,NA,0.00,davis-wu-upload.pl,2013-05-27 12:32:00,
2013-05-27 08:37:00,60.3,35.0,28.35,SE,132,2.2,4.5,39,0.00,NA,NA,0.00,davis-wu-upload.pl,2013-05-27 12:37:00,
2013-05-27 08:42:00,60.5,34.0,28.35,SE,132,4.0,4.3,37,0.00,NA,NA,0.00,davis-wu-upload.pl,2013-05-27 12:42:00,
2013-05-27 08:47:00,61.1,33.4,28.36,SSE,153,3.8,4.0,35,0.00,NA,NA,0.00,davis-wu-upload.pl,2013-05-27 12:47:00,
2013-05-27 08:52:00,60.4,34.8,28.35,SSE,152,2.8,4.0,38,0.00,NA,NA,0.00,davis-wu-upload.pl,2013-05-27 12:52:00,
2013-05-27 08:57:00,60.6,34.9,28.35,SE,141,2.6,3.8,38,0.00,NA,NA,0.00,davis-wu-upload.pl,2013-05-27 12:57:00,
2013-05-27 09:02:00,59.5,33.4,28.35,SE,141,3.0,3.4,37,0.00,NA,NA,0.00,davis-wu-upload.pl,2013-05-27 13:02:00,
2013-05-27 09:07:00,60.8,36.1,28.35,North,0,1.0,3.0,40,0.00,NA,NA,0.00,davis-wu-upload.pl,2013-05-27 13:07:00,
2013-05-27 09:12:00,61.3,33.4,28.35,SE,132,3.8,3.8,35,0.00,NA,NA,0.00,davis-wu-upload.pl,2013-05-27 13:12:00,
2013-05-27 09:17:00,60.4,34.0,28.35,SSE,150,3.5,3.8,37,0.00,NA,NA,0.00,davis-wu-upload.pl,2013-05-27 13:17:00,
2013-05-27 09:22:00,60.8,35.4,28.35,SE,133,2.2,3.8,39,0.00,NA,NA,0.00,davis-wu-upload.pl,2013-05-27 13:22:00,
2013-05-27 09:27:00,60.5,35.1,28.35,SSE,155,2.5,3.5,38,0.00,NA,NA,0.00,davis-wu-upload.pl,2013-05-27 13:27:00,
2013-05-27 09:32:00,60.0,36.3,28.35,North,0,0.4,2.5,41,0.00,NA,NA,0.00,davis-wu-upload.pl,2013-05-27 13:32:00,
2013-05-27 09:37:00,59.5,36.2,28.35,SE,140,3.1,3.7,42,0.00,NA,NA,0.00,davis-wu-upload.pl,2013-05-27 13:37:00,
2013-05-27 09:42:00,59.6,35.7,28.35,SE,139,3.0,3.7,41,0.00,NA,NA,0.00,davis-wu-upload.pl,2013-05-27 13:42:00,
2013-05-27 09:47:00,59.7,37.1,28.35,North,0,1.1,3.1,43,0.00,NA,NA,0.00,davis-wu-upload.pl,2013-05-27 13:47:00,
2013-05-27 09:52:00,60.6,38.0,28.35,North,0,0.9,3.0,43,0.00,NA,NA,0.00,davis-wu-upload.pl,2013-05-27 13:52:00,
2013-05-27 09:57:00,61.5,37.2,28.35,SSE,151,1.3,1.8,40,0.00,NA,NA,0.00,davis-wu-upload.pl,2013-05-27 13:57:00,
2013-05-27 10:02:00,61.6,36.6,28.35,North,0,0.5,2.4,39,0.00,NA,NA,0.00,davis-wu-upload.pl,2013-05-27 14:02:00,
2013-05-27 10:07:00,62.3,38.8,28.35,South,169,1.2,2.4,42,0.00,NA,NA,0.00,davis-wu-upload.pl,2013-05-27 14:07:00,
2013-05-27 10:12:00,61.7,37.6,28.35,SSE,161,1.2,2.4,41,0.00,NA,NA,0.00,davis-wu-upload.pl,2013-05-27 14:12:00,
2013-05-27 10:17:00,61.4,37.7,28.35,SSE,168,2.4,2.4,41,0.00,NA,NA,0.00,davis-wu-upload.pl,2013-05-27 14:17:00,
2013-05-27 10:22:00,60.4,37.6,28.35,SSE,168,1.1,2.4,43,0.00,NA,NA,0.00,davis-wu-upload.pl,2013-05-27 14:22:00,
2013-05-27 10:27:00,60.3,37.7,28.35,North,0,0.9,2.4,43,0.00,NA,NA,0.00,davis-wu-upload.pl,2013-05-27 14:27:00,
2013-05-27 10:32:00,60.0,37.5,28.35,SSE,168,3.9,3.9,43,0.00,NA,NA,0.00,davis-wu-upload.pl,2013-05-27 14:32:00,
2013-05-27 10:37:00,59.5,37.7,28.35,SSE,168,3.7,3.9,44,0.00,NA,NA,0.00,davis-wu-upload.pl,2013-05-27 14:37:00,
2013-05-27 10:42:00,59.3,40.1,28.35,South,169,1.5,3.9,49,0.00,NA,NA,0.00,davis-wu-upload.pl,2013-05-27 14:42:00,
2013-05-27 10:47:00,59.2,38.7,28.35,SSE,168,3.1,3.7,46,0.00,NA,NA,0.00,davis-wu-upload.pl,2013-05-27 14:47:00,
2013-05-27 10:52:00,59.1,39.4,28.35,SSE,168,2.9,3.7,48,0.00,NA,NA,0.00,davis-wu-upload.pl,2013-05-27 14:52:00,
2013-05-27 10:57:00,59.2,39.6,28.36,SSE,168,3.5,3.7,48,0.00,NA,NA,0.00,davis-wu-upload.pl,2013-05-27 14:57:00,
2013-05-27 11:02:00,60.7,40.7,28.36,SSE,168,3.5,3.7,48,0.00,NA,NA,0.00,davis-wu-upload.pl,2013-05-27 15:02:00,
2013-05-27 11:07:00,59.9,39.5,28.35,SSE,168,3.3,3.5,47,0.00,NA,NA,0.00,davis-wu-upload.pl,2013-05-27 15:07:00,
2013-05-27 11:12:00,60.1,37.4,28.35,SSE,162,2.7,3.5,43,0.00,NA,NA,0.00,davis-wu-upload.pl,2013-05-27 15:12:00,
2013-05-27 11:17:00,60.0,38.2,28.35,SSE,160,2.0,3.3,44,0.00,NA,NA,0.00,davis-wu-upload.pl,2013-05-27 15:17:00,
2013-05-27 11:22:00,60.1,40.2,28.35,SSE,168,1.4,2.8,48,0.00,NA,NA,0.00,davis-wu-upload.pl,2013-05-27 15:22:00,
2013-05-27 11:27:00,60.5,39.7,28.35,SSE,152,2.0,2.8,46,0.00,NA,NA,0.00,davis-wu-upload.pl,2013-05-27 15:27:00,
2013-05-27 11:32:00,62.0,40.0,28.35,SSE,151,2.3,2.5,44,0.00,NA,NA,0.00,davis-wu-upload.pl,2013-05-27 15:32:00,
2013-05-27 11:37:00,61.2,39.5,28.35,SSE,152,1.4,3.1,45,0.00,NA,NA,0.00,davis-wu-upload.pl,2013-05-27 15:37:00,
2013-05-27 11:42:00,62.4,40.2,28.35,SSE,152,1.6,3.1,44,0.00,NA,NA,0.00,davis-wu-upload.pl,2013-05-27 15:42:00,
2013-05-27 11:47:00,62.6,39.9,28.35,North,0,0.6,1.8,43,0.00,NA,NA,0.00,davis-wu-upload.pl,2013-05-27 15:47:00,
2013-05-27 11:52:00,62.2,39.4,28.35,SSE,150,1.2,1.8,43,0.00,NA,NA,0.00,davis-wu-upload.pl,2013-05-27 15:52:00,
2013-05-27 11:57:00,61.4,41.0,28.35,SSE,154,2.5,2.6,47,0.00,NA,NA,0.00,davis-wu-upload.pl,2013-05-27 15:57:00,
2013-05-27 12:02:00,61.9,41.8,28.35,SSE,159,1.5,2.6,48,0.00,NA,NA,0.00,davis-wu-upload.pl,2013-05-27 16:02:00,
2013-05-27 12:07:00,61.2,40.2,28.35,SSE,157,1.4,2.5,46,0.00,NA,NA,0.00,davis-wu-upload.pl,2013-05-27 16:07:00,
2013-05-27 12:12:00,60.0,40.1,28.35,SSE,156,2.9,2.9,48,0.00,NA,NA,0.00,davis-wu-upload.pl,2013-05-27 16:12:00,
2013-05-27 12:17:00,60.3,42.9,28.35,SSE,147,2.9,3.7,53,0.00,NA,NA,0.00,davis-wu-upload.pl,2013-05-27 16:17:00,
2013-05-27 12:22:00,60.6,42.4,28.35,SSE,155,2.7,3.7,51,0.00,NA,NA,0.00,davis-wu-upload.pl,2013-05-27 16:22:00,
2013-05-27 12:27:00,60.2,41.3,28.35,South,169,2.6,3.0,50,0.00,NA,NA,0.00,davis-wu-upload.pl,2013-05-27 16:27:00,
2013-05-27 12:32:00,60.5,40.2,28.35,North,0,0.2,3.0,47,0.00,NA,NA,0.00,davis-wu-upload.pl,2013-05-27 16:32:00,
2013-05-27 12:37:00,60.7,41.7,28.34,North,0,1.1,2.6,50,0.00,NA,NA,0.00,davis-wu-upload.pl,2013-05-27 16:37:00,
2013-05-27 12:42:00,60.6,42.4,28.34,SSE,157,2.0,2.0,51,0.00,NA,NA,0.00,davis-wu-upload.pl,2013-05-27 16:42:00,
2013-05-27 12:47:00,60.3,41.7,28.34,South,169,2.1,2.1,50,0.00,NA,NA,0.00,davis-wu-upload.pl,2013-05-27 16:47:00,
2013-05-27 12:52:00,59.7,40.3,28.34,South,169,1.7,2.3,49,0.00,NA,NA,0.00,davis-wu-upload.pl,2013-05-27 16:52:00,
2013-05-27 12:57:00,59.2,40.0,28.34,South,170,4.0,4.4,49,0.00,NA,NA,0.00,davis-wu-upload.pl,2013-05-27 16:57:00,
2013-05-27 13:02:00,58.8,40.2,28.34,South,170,3.1,4.4,50,0.00,NA,NA,0.00,davis-wu-upload.pl,2013-05-27 17:02:00,
2013-05-27 13:07:00,58.6,38.9,28.34,South,169,3.1,4.4,48,0.00,NA,NA,0.00,davis-wu-upload.pl,2013-05-27 17:07:00,
2013-05-27 13:12:00,58.9,40.7,28.34,South,169,2.4,4.4,51,0.00,NA,NA,0.00,davis-wu-upload.pl,2013-05-27 17:12:00,
2013-05-27 13:17:00,59.1,40.8,28.34,South,169,3.5,3.5,51,0.00,NA,NA,0.00,davis-wu-upload.pl,2013-05-27 17:17:00,
2013-05-27 13:22:00,59.3,41.2,28.33,South,169,3.3,5.1,51,0.00,NA,NA,0.00,davis-wu-upload.pl,2013-05-27 17:22:00,
2013-05-27 13:27:00,59.2,40.5,28.33,South,169,4.3,5.1,50,0.00,NA,NA,0.00,davis-wu-upload.pl,2013-05-27 17:27:00,
2013-05-27 13:32:00,59.0,40.1,28.33,South,170,4.9,5.5,49,0.00,NA,NA,0.00,davis-wu-upload.pl,2013-05-27 17:32:00,
2013-05-27 13:37:00,59.4,40.3,28.33,North,0,0.9,5.5,49,0.00,NA,NA,0.00,davis-wu-upload.pl,2013-05-27 17:37:00,
2013-05-27 13:42:00,60.2,41.8,28.33,North,0,1.0,4.9,50,0.00,NA,NA,0.00,davis-wu-upload.pl,2013-05-27 17:42:00,
2013-05-27 13:47:00,60.1,41.5,28.33,North,0,1.1,2.6,50,0.00,NA,NA,0.00,davis-wu-upload.pl,2013-05-27 17:47:00,
2013-05-27 13:52:00,60.2,40.8,28.33,South,169,2.1,2.6,49,0.00,NA,NA,0.00,davis-wu-upload.pl,2013-05-27 17:52:00,
2013-05-27 13:57:00,60.8,41.9,28.33,South,169,2.2,2.2,50,0.00,NA,NA,0.00,davis-wu-upload.pl,2013-05-27 17:57:00,
2013-05-27 14:02:00,62.1,43.0,28.33,South,169,3.7,3.7,50,0.00,NA,NA,0.00,davis-wu-upload.pl,2013-05-27 18:02:00,
2013-05-27 14:07:00,60.8,40.6,28.33,SSE,168,4.9,4.9,47,0.00,NA,NA,0.00,davis-wu-upload.pl,2013-05-27 18:07:00,
2013-05-27 14:12:00,61.8,41.1,28.33,North,0,0.4,4.9,46,0.00,NA,NA,0.00,davis-wu-upload.pl,2013-05-27 18:12:00,
2013-05-27 14:17:00,61.6,40.7,28.33,SSE,168,1.6,4.9,46,0.00,NA,NA,0.00,davis-wu-upload.pl,2013-05-27 18:17:00,
2013-05-27 14:22:00,64.8,45.6,28.32,South,169,1.6,2.1,50,0.00,NA,NA,0.00,davis-wu-upload.pl,2013-05-27 18:22:00,
2013-05-27 14:27:00,64.6,42.5,28.32,SSE,168,3.4,3.4,44,0.00,NA,NA,0.00,davis-wu-upload.pl,2013-05-27 18:27:00,
2013-05-27 14:32:00,64.3,42.8,28.32,SSE,168,3.1,3.4,45,0.00,NA,NA,0.00,davis-wu-upload.pl,2013-05-27 18:32:00,
2013-05-27 14:37:00,63.9,40.5,28.32,South,169,2.8,3.8,42,0.00,NA,NA,0.00,davis-wu-upload.pl,2013-05-27 18:37:00,
2013-05-27 14:42:00,64.4,38.5,28.32,SSE,168,2.6,4.1,38,0.00,NA,NA,0.00,davis-wu-upload.pl,2013-05-27 18:42:00,
2013-05-27 14:47:00,65.6,41.8,28.32,North,0,0.7,4.1,42,0.00,NA,NA,0.00,davis-wu-upload.pl,2013-05-27 18:47:00,
2013-05-27 14:52:00,66.9,42.4,28.32,SSE,168,3.9,4.1,41,0.00,NA,NA,0.00,davis-wu-upload.pl,2013-05-27 18:52:00,
2013-05-27 14:57:00,66.1,42.0,28.32,South,169,2.8,3.9,42,0.00,NA,NA,0.00,davis-wu-upload.pl,2013-05-27 18:57:00,
2013-05-27 15:02:00,65.2,43.1,28.32,South,169,2.3,3.9,45,0.00,NA,NA,0.00,davis-wu-upload.pl,2013-05-27 19:02:00,
2013-05-27 15:07:00,64.8,41.7,28.32,South,169,2.1,3.3,43,0.00,NA,NA,0.00,davis-wu-upload.pl,2013-05-27 19:07:00,
2013-05-27 15:12:00,63.3,40.1,28.32,South,169,3.9,3.9,42,0.00,NA,NA,0.00,davis-wu-upload.pl,2013-05-27 19:12:00,
2013-05-27 15:17:00,64.0,41.5,28.31,North,0,0.7,3.9,44,0.00,NA,NA,0.00,davis-wu-upload.pl,2013-05-27 19:17:00,
2013-05-27 15:22:00,64.5,41.9,28.31,South,169,1.7,3.9,44,0.00,NA,NA,0.00,davis-wu-upload.pl,2013-05-27 19:22:00,
2013-05-27 15:27:00,64.6,43.2,28.31,South,169,1.6,1.9,46,0.00,NA,NA,0.00,davis-wu-upload.pl,2013-05-27 19:27:00,
2013-05-27 15:32:00,64.7,43.7,28.30,South,169,2.0,2.1,47,0.00,NA,NA,0.00,davis-wu-upload.pl,2013-05-27 19:32:00,
2013-05-27 15:37:00,64.1,43.1,28.30,South,169,2.1,2.5,46,0.00,NA,NA,0.00,davis-wu-upload.pl,2013-05-27 19:37:00,
2013-05-27 15:42:00,65.0,43.0,28.30,North,0,1.0,2.5,45,0.00,NA,NA,0.00,davis-wu-upload.pl,2013-05-27 19:42:00,
2013-05-27 15:47:00,64.3,42.0,28.30,North,0,0.8,3.5,44,0.00,NA,NA,0.00,davis-wu-upload.pl,2013-05-27 19:47:00,
2013-05-27 15:52:00,64.1,42.0,28.30,South,169,1.8,3.5,45,0.00,NA,NA,0.00,davis-wu-upload.pl,2013-05-27 19:52:00,
2013-05-27 15:57:00,63.9,42.3,28.30,North,0,0.7,1.8,45,0.00,NA,NA,0.00,davis-wu-upload.pl,2013-05-27 19:57:00,
2013-05-27 16:02:00,63.6,43.5,28.30,North,0,0.8,2.8,48,0.00,NA,NA,0.00,davis-wu-upload.pl,2013-05-27 20:02:00,
2013-05-27 16:07:00,63.2,42.8,28.30,South,169,1.6,2.8,47,0.00,NA,NA,0.00,davis-wu-upload.pl,2013-05-27 20:07:00,
2013-05-27 16:12:00,64.0,43.7,28.30,North,0,0.7,2.3,48,0.00,NA,NA,0.00,davis-wu-upload.pl,2013-05-27 20:12:00,
2013-05-27 16:17:00,63.9,44.0,28.30,South,169,1.6,2.7,48,0.00,NA,NA,0.00,davis-wu-upload.pl,2013-05-27 20:17:00,
2013-05-27 16:22:00,63.9,45.1,28.30,South,169,2.0,2.7,51,0.00,NA,NA,0.00,davis-wu-upload.pl,2013-05-27 20:22:00,
2013-05-27 16:27:00,63.6,45.9,28.30,North,0,0.7,2.0,52,0.00,NA,NA,0.00,davis-wu-upload.pl,2013-05-27 20:27:00,
2013-05-27 16:32:00,62.6,45.6,28.30,South,169,1.8,2.0,54,0.00,NA,NA,0.00,davis-wu-upload.pl,2013-05-27 20:32:00,
2013-05-27 16:37:00,61.7,45.0,28.30,South,169,1.6,3.7,54,0.00,NA,NA,0.00,davis-wu-upload.pl,2013-05-27 20:37:00,
2013-05-27 16:42:00,62.1,45.6,28.30,South,170,2.6,3.7,55,0.00,NA,NA,0.00,davis-wu-upload.pl,2013-05-27 20:42:00,
2013-05-27 16:47:00,61.7,45.6,28.30,North,0,0.6,3.4,56,0.00,NA,NA,0.00,davis-wu-upload.pl,2013-05-27 20:47:00,
2013-05-27 16:52:00,61.6,44.4,28.30,South,170,2.2,3.4,53,0.00,NA,NA,0.00,davis-wu-upload.pl,2013-05-27 20:52:00,
2013-05-27 16:57:00,61.6,44.9,28.30,South,169,1.3,2.2,54,0.00,NA,NA,0.00,davis-wu-upload.pl,2013-05-27 20:57:00,
2013-05-27 17:02:00,61.9,45.4,28.30,South,170,1.4,2.2,55,0.00,NA,NA,0.00,davis-wu-upload.pl,2013-05-27 21:02:00,
2013-05-27 17:07:00,61.7,45.2,28.29,North,0,0.6,1.4,55,0.00,NA,NA,0.00,davis-wu-upload.pl,2013-05-27 21:07:00,
2013-05-27 17:12:00,61.9,45.2,28.29,North,0,0.6,2.0,54,0.00,NA,NA,0.00,davis-wu-upload.pl,2013-05-27 21:12:00,
2013-05-27 17:17:00,62.7,46.6,28.29,North,0,0.8,2.0,56,0.00,NA,NA,0.00,davis-wu-upload.pl,2013-05-27 21:17:00,
2013-05-27 17:22:00,63.6,45.4,28.29,North,0,0.6,1.8,51,0.00,NA,NA,0.00,davis-wu-upload.pl,2013-05-27 21:22:00,
2013-05-27 17:27:00,64.0,45.6,28.29,South,169,1.3,2.6,51,0.00,NA,NA,0.00,davis-wu-upload.pl,2013-05-27 21:27:00,
2013-05-27 17:32:00,65.1,47.1,28.29,North,0,0.7,2.6,52,0.00,NA,NA,0.00,davis-wu-upload.pl,2013-05-27 21:32:00,
2013-05-27 17:37:00,64.5,45.6,28.29,SSE,163,1.8,2.8,50,0.00,NA,NA,0.00,davis-wu-upload.pl,2013-05-27 21:37:00,
2013-05-27 17:42:00,63.9,45.9,28.29,North,0,0.9,2.8,52,0.00,NA,NA,0.00,davis-wu-upload.pl,2013-05-27 21:42:00,
2013-05-27 17:47:00,62.6,46.3,28.29,North,0,1.0,2.8,55,0.00,NA,NA,0.00,davis-wu-upload.pl,2013-05-27 21:47:00,
2013-05-27 17:52:00,62.3,45.8,28.29,SSE,159,3.2,3.2,55,0.00,NA,NA,0.00,davis-wu-upload.pl,2013-05-27 21:52:00,
2013-05-27 17:57:00,62.3,46.2,28.29,North,0,0.6,3.2,56,0.00,NA,NA,0.00,davis-wu-upload.pl,2013-05-27 21:57:00,
2013-05-27 18:02:00,62.8,46.9,28.29,North,0,0.6,3.2,56,0.00,NA,NA,0.00,davis-wu-upload.pl,2013-05-27 22:02:00,
2013-05-27 18:07:00,62.5,46.7,28.28,South,169,1.5,1.5,56,0.00,NA,NA,0.00,davis-wu-upload.pl,2013-05-27 22:07:00,
2013-05-27 18:12:00,62.9,46.6,28.28,South,169,2.3,2.3,55,0.00,NA,NA,0.00,davis-wu-upload.pl,2013-05-27 22:12:00,
2013-05-27 18:17:00,62.8,47.4,28.28,SSE,168,1.3,2.3,57,0.00,NA,NA,0.00,davis-wu-upload.pl,2013-05-27 22:17:00,
2013-05-27 18:22:00,63.1,46.2,28.28,North,0,0.5,2.3,54,0.00,NA,NA,0.00,davis-wu-upload.pl,2013-05-27 22:22:00,
2013-05-27 18:27:00,62.7,47.3,28.28,South,169,3.5,3.5,57,0.00,NA,NA,0.00,davis-wu-upload.pl,2013-05-27 22:27:00,
2013-05-27 18:32:00,62.2,46.9,28.27,South,169,4.4,4.9,57,0.00,NA,NA,0.00,davis-wu-upload.pl,2013-05-27 22:32:00,
2013-05-27 18:37:00,62.0,47.3,28.27,South,169,4.4,5.6,59,0.00,NA,NA,0.00,davis-wu-upload.pl,2013-05-27 22:37:00,
2013-05-27 18:42:00,61.9,47.1,28.27,South,169,4.0,5.6,58,0.00,NA,NA,0.00,davis-wu-upload.pl,2013-05-27 22:42:00,
2013-05-27 18:47:00,61.8,47.6,28.27,SSE,168,4.0,5.6,60,0.00,NA,NA,0.00,davis-wu-upload.pl,2013-05-27 22:47:00,
2013-05-27 18:52:00,61.6,47.1,28.27,South,169,4.2,5.2,59,0.00,NA,NA,0.00,davis-wu-upload.pl,2013-05-27 22:52:00,
2013-05-27 18:57:00,61.4,46.8,28.27,South,170,4.0,5.3,59,0.00,NA,NA,0.00,davis-wu-upload.pl,2013-05-27 22:57:00,
2013-05-27 19:02:00,61.4,47.2,28.27,South,169,3.3,5.3,60,0.00,NA,NA,0.00,davis-wu-upload.pl,2013-05-27 23:02:00,
2013-05-27 19:07:00,61.7,47.0,28.27,South,169,3.5,4.7,59,0.00,NA,NA,0.00,davis-wu-upload.pl,2013-05-27 23:07:00,
2013-05-27 19:12:00,61.9,47.2,28.27,SSE,167,3.3,3.8,58,0.00,NA,NA,0.00,davis-wu-upload.pl,2013-05-27 23:12:00,
2013-05-27 19:17:00,61.6,47.2,28.27,South,169,2.9,3.5,59,0.00,NA,NA,0.00,davis-wu-upload.pl,2013-05-27 23:17:00,
2013-05-27 19:22:00,61.1,47.4,28.27,South,169,3.8,3.8,61,0.00,NA,NA,0.00,davis-wu-upload.pl,2013-05-27 23:22:00,
2013-05-27 19:27:00,60.7,47.0,28.27,South,169,4.1,4.1,60,0.00,NA,NA,0.00,davis-wu-upload.pl,2013-05-27 23:27:00,
2013-05-27 19:32:00,60.7,47.3,28.26,South,169,3.6,4.6,61,0.00,NA,NA,0.00,davis-wu-upload.pl,2013-05-27 23:32:00,
2013-05-27 19:37:00,61.0,47.6,28.26,South,169,3.9,4.6,61,0.00,NA,NA,0.00,davis-wu-upload.pl,2013-05-27 23:37:00,
2013-05-27 19:42:00,61.3,48.2,28.26,South,169,2.2,4.1,62,0.00,NA,NA,0.00,davis-wu-upload.pl,2013-05-27 23:42:00,
2013-05-27 19:47:00,61.4,48.3,28.26,South,169,3.2,4.0,62,0.00,NA,NA,0.00,davis-wu-upload.pl,2013-05-27 23:47:00,
2013-05-27 19:52:00,61.1,46.9,28.26,South,169,2.9,3.8,60,0.00,NA,NA,0.00,davis-wu-upload.pl,2013-05-27 23:52:00,
2013-05-27 19:57:00,61.0,46.9,28.27,South,169,2.9,3.8,60,0.00,NA,NA,0.00,davis-wu-upload.pl,2013-05-27 23:57:00,
2013-05-27 20:02:00,61.1,47.9,28.26,South,169,1.7,3.8,62,0.00,NA,NA,0.00,davis-wu-upload.pl,2013-05-28 00:02:00,
2013-05-27 20:07:00,61.3,48.2,28.26,South,169,1.8,2.9,62,0.00,NA,NA,0.00,davis-wu-upload.pl,2013-05-28 00:07:00,
2013-05-27 20:12:00,60.8,47.3,28.26,South,169,1.7,2.3,61,0.00,NA,NA,0.00,davis-wu-upload.pl,2013-05-28 00:12:00,
2013-05-27 20:17:00,61.0,48.0,28.26,SSE,168,3.5,3.5,62,0.00,NA,NA,0.00,davis-wu-upload.pl,2013-05-28 00:17:00,
2013-05-27 20:22:00,60.6,46.2,28.27,SSE,161,3.4,4.1,59,0.00,NA,NA,0.00,davis-wu-upload.pl,2013-05-28 00:22:00,
2013-05-27 20:27:00,60.3,46.1,28.27,SSE,168,4.0,4.4,60,0.00,NA,NA,0.00,davis-wu-upload.pl,2013-05-28 00:27:00,
2013-05-27 20:32:00,60.6,46.7,28.27,SSE,168,3.4,4.4,60,0.00,NA,NA,0.00,davis-wu-upload.pl,2013-05-28 00:32:00,
2013-05-27 20:37:00,60.9,47.3,28.27,South,169,5.0,5.0,61,0.00,NA,NA,0.00,davis-wu-upload.pl,2013-05-28 00:37:00,
2013-05-27 20:42:00,61.0,47.8,28.26,SSE,168,3.3,5.0,62,0.00,NA,NA,0.00,davis-wu-upload.pl,2013-05-28 00:42:00,
2013-05-27 20:47:00,61.1,48.1,28.27,SSE,168,1.9,5.0,62,0.00,NA,NA,0.00,davis-wu-upload.pl,2013-05-28 00:47:00,
2013-05-27 20:52:00,61.2,48.6,28.27,SSE,168,4.1,4.1,63,0.00,NA,NA,0.00,davis-wu-upload.pl,2013-05-28 00:52:00,
2013-05-27 20:57:00,61.0,48.2,28.27,SSE,168,4.9,4.9,63,0.00,NA,NA,0.00,davis-wu-upload.pl,2013-05-28 00:57:00,
2013-05-27 21:02:00,61.1,48.2,28.26,SSE,168,4.5,4.9,63,0.00,NA,NA,0.00,davis-wu-upload.pl,2013-05-28 01:02:00,
2013-05-27 21:07:00,61.2,48.3,28.27,SSE,168,1.1,4.9,62,0.00,NA,NA,0.00,davis-wu-upload.pl,2013-05-28 01:07:00,
2013-05-27 21:12:00,61.2,48.4,28.27,SSE,168,1.8,4.8,63,0.00,NA,NA,0.00,davis-wu-upload.pl,2013-05-28 01:12:00,
2013-05-27 21:17:00,60.9,48.4,28.27,North,0,1.0,1.8,63,0.00,NA,NA,0.00,davis-wu-upload.pl,2013-05-28 01:17:00,
2013-05-27 21:22:00,60.7,48.4,28.27,North,0,0.9,2.6,64,0.00,NA,NA,0.00,davis-wu-upload.pl,2013-05-28 01:22:00,
2013-05-27 21:27:00,61.1,48.4,28.27,SSE,167,2.4,2.6,63,0.00,NA,NA,0.00,davis-wu-upload.pl,2013-05-28 01:27:00,
2013-05-27 21:32:00,61.1,48.5,28.27,South,169,3.1,3.5,63,0.00,NA,NA,0.00,davis-wu-upload.pl,2013-05-28 01:32:00,
2013-05-27 21:37:00,61.1,48.6,28.28,SSE,168,2.2,3.5,63,0.00,NA,NA,0.00,davis-wu-upload.pl,2013-05-28 01:37:00,
2013-05-27 21:42:00,61.2,48.7,28.28,SSE,168,1.6,3.3,64,0.00,NA,NA,0.00,davis-wu-upload.pl,2013-05-28 01:42:00,
2013-05-27 21:47:00,61.1,48.5,28.28,SSE,168,2.6,2.7,63,0.00,NA,NA,0.00,davis-wu-upload.pl,2013-05-28 01:47:00,
2013-05-27 21:52:00,61.2,48.5,28.28,South,169,4.0,4.4,63,0.00,NA,NA,0.00,davis-wu-upload.pl,2013-05-28 01:52:00,
2013-05-27 21:57:00,61.2,48.3,28.28,SSE,168,1.7,4.4,63,0.00,NA,NA,0.00,davis-wu-upload.pl,2013-05-28 01:57:00,
2013-05-27 22:02:00,61.1,48.2,28.29,SSE,168,2.3,4.4,62,0.00,NA,NA,0.00,davis-wu-upload.pl,2013-05-28 02:02:00,
2013-05-27 22:07:00,61.0,48.1,28.29,SSE,168,2.6,2.6,63,0.00,NA,NA,0.00,davis-wu-upload.pl,2013-05-28 02:07:00,
2013-05-27 22:12:00,60.6,47.8,28.29,SSE,168,1.6,2.6,63,0.00,NA,NA,0.00,davis-wu-upload.pl,2013-05-28 02:12:00,
2013-05-27 22:17:00,60.3,47.9,28.29,SSE,168,4.2,4.2,64,0.00,NA,NA,0.00,davis-wu-upload.pl,2013-05-28 02:17:00,
2013-05-27 22:22:00,60.8,48.3,28.29,SSE,168,4.8,5.1,64,0.00,NA,NA,0.00,davis-wu-upload.pl,2013-05-28 02:22:00,
2013-05-27 22:27:00,61.7,49.0,28.29,SSE,168,6.7,6.7,63,0.00,NA,NA,0.00,davis-wu-upload.pl,2013-05-28 02:27:00,
2013-05-27 22:32:00,61.9,48.9,28.29,SSE,168,7.6,8.0,62,0.00,NA,NA,0.00,davis-wu-upload.pl,2013-05-28 02:32:00,
2013-05-27 22:37:00,61.9,49.1,28.29,SSE,168,5.7,8.0,63,0.00,NA,NA,0.00,davis-wu-upload.pl,2013-05-28 02:37:00,
2013-05-27 22:42:00,61.8,49.1,28.29,SSE,168,4.8,7.6,63,0.00,NA,NA,0.00,davis-wu-upload.pl,2013-05-28 02:42:00,
2013-05-27 22:47:00,61.8,49.1,28.29,SSE,167,5.3,6.9,63,0.00,NA,NA,0.00,davis-wu-upload.pl,2013-05-28 02:47:00,
2013-05-27 22:52:00,61.7,49.2,28.29,SSE,167,5.6,6.2,64,0.00,NA,NA,0.00,davis-wu-upload.pl,2013-05-28 02:52:00,
2013-05-27 22:57:00,61.7,49.4,28.29,SSE,153,5.8,6.2,64,0.00,NA,NA,0.00,davis-wu-upload.pl,2013-05-28 02:57:00,
2013-05-27 23:02:00,61.9,49.7,28.28,SSE,155,6.6,7.3,64,0.00,NA,NA,0.00,davis-wu-upload.pl,2013-05-28 03:02:00,
2013-05-27 23:07:00,61.6,49.5,28.29,SSE,161,5.7,7.3,64,0.00,NA,NA,0.00,davis-wu-upload.pl,2013-05-28 03:07:00,
2013-05-27 23:12:00,61.6,49.9,28.29,SSE,160,5.4,7.3,65,0.00,NA,NA,0.00,davis-wu-upload.pl,2013-05-28 03:12:00,
2013-05-27 23:17:00,61.4,49.7,28.29,SSE,161,5.0,5.7,65,0.00,NA,NA,0.00,davis-wu-upload.pl,2013-05-28 03:17:00,
2013-05-27 23:22:00,61.5,49.9,28.29,SSE,156,4.2,6.2,66,0.00,NA,NA,0.00,davis-wu-upload.pl,2013-05-28 03:22:00,
2013-05-27 23:27:00,61.5,50.2,28.29,SSE,156,6.6,6.8,66,0.00,NA,NA,0.00,davis-wu-upload.pl,2013-05-28 03:27:00,
2013-05-27 23:32:00,61.3,50.2,28.28,SSE,151,5.0,6.8,67,0.00,NA,NA,0.00,davis-wu-upload.pl,2013-05-28 03:32:00,
2013-05-27 23:37:00,61.1,49.8,28.29,SSE,154,4.4,6.6,66,0.00,NA,NA,0.00,davis-wu-upload.pl,2013-05-28 03:37:00,
2013-05-27 23:42:00,60.3,48.0,28.29,SSE,153,3.5,5.6,64,0.00,NA,NA,0.00,davis-wu-upload.pl,2013-05-28 03:42:00,
2013-05-27 23:47:00,60.0,47.7,28.29,SSE,149,4.1,4.4,64,0.00,NA,NA,0.00,davis-wu-upload.pl,2013-05-28 03:47:00,
2013-05-27 23:52:00,60.2,48.8,28.29,SSE,151,4.7,4.7,66,0.00,NA,NA,0.00,davis-wu-upload.pl,2013-05-28 03:52:00,
2013-05-27 23:57:00,60.1,48.4,28.29,SSE,155,3.3,4.7,65,0.00,NA,NA,0.00,davis-wu-upload.pl,2013-05-28 03:57:00,